Wind_Speed
23 22 22 22 22 22 22 23 24 24 24 24 24 24 23 22 22 22 22 23 22 22 22 22 22 22 22 22 22 23 23 23 24 25 25 25 26 26 26 26 27 27 27
23 23 23 22 23 23 24 24 25 26 26 26 25 25 24 24 23 24 24 24 24 24 24 24 24 24 24 24 24 24 25 25 25 26 26 27 27 28 28 28 28 28 28
25 24 24 24 24 24 24 25 26 26 27 27 27 25 25 25 25 26 26 26 26 26 25 25 25 26 26 26 26 26 27 27 28 28 29 29 29 29 29 29 28 28 28
27 27 27 26 25 25 25 26 26 27 28 28 28 27 26 26 26 27 27 28 27 27 27 27 27 28 28 28 28 29 29 29 30 31 31 31 31 31 30 30 29 29 29
27 28 28 27 27 27 27 27 28 28 29 29 29 29 27 28 28 28 29 29 29 29 29 29 29 30 30 30 31 31 31 32 32 33 33 33 33 32 31 31 31 31 31
29 29 29 29 28 28 28 28 29 29 29 29 30 31 30 29 30 30 30 30 31 30 30 31 31 32 32 33 33 33 34 34 34 34 34 34 34 34 33 32 32 32 32
31 31 31 31 30 30 29 30 30 30 31 31 32 32 32 31 31 31 32 32 33 32 32 33 33 34 34 35 35 35 35 35 35 35 35 35 35 35 35 35 35 35 35
32 32 32 32 32 31 31 31 31 32 33 33 34 34 35 35 33 33 33 34 34 35 34 35 35 35 36 36 36 36 37 37 37 37 37 37 38 37 37 37 37 37 37
32 32 32 32 32 33 33 33 33 34 35 35 36 37 37 37 36 35 36 36 36 36 36 37 37 37 37 38 38 38 38 38 39 39 39 39 38 39 39 39 39 39 39
33 33 33 34 34 34 35 35 35 35 36 36 37 38 38 39 38 37 37 37 38 37 38 38 38 38 39 39 40 40 40 41 41 41 41 40 41 41 41 41 41 42 41
35 35 35 35 36 36 36 36 37 37 37 37 38 38 39 39 39 39 38 37 38 39 39 40 40 40 41 41 42 42 43 43 43 43 43 43 43 43 43 43 44 43 43
36 37 37 37 37 37 37 37 38 38 37 37 38 38 39 40 41 41 41 40 40 40 41 42 43 43 43 44 44 45 45 45 45 45 46 46 46 46 46 46 46 46 46
36 37 38 39 38 38 38 38 39 39 39 38 39 40 40 41 42 43 43 43 43 43 43 44 45 45 45 46 46 46 47 47 47 48 48 48 48 48 49 49 49 49 49
37 38 38 39 40 39 39 39 40 40 40 40 41 42 42 43 44 45 46 46 46 45 45 46 47 48 47 48 49 49 50 50 50 50 50 50 50 51 51 52 52 52 52
35 36 37 39 40 40 41 41 40 41 41 42 42 44 44 45 47 47 48 48 48 48 48 48 49 51 51 51 51 52 52 52 53 53 53 53 53 54 54 55 55 55 54
36 36 37 39 39 41 41 41 42 42 42 43 43 45 46 47 48 49 50 50 51 51 51 50 51 51 53 53 54 54 54 54 55 55 55 55 56 56 57 57 57 57 56
38 39 39 40 41 42 43 43 43 44 44 45 46 46 47 49 50 51 52 53 53 54 54 54 54 53 54 54 55 56 56 57 57 58 58 58 58 58 58 58 58 58 57
39 40 41 42 43 43 44 45 46 46 47 47 48 49 49 51 52 52 53 53 54 55 55 55 56 56 56 56 56 57 58 58 59 59 59 58 58 58 58 58 58 58 58
42 43 44 45 45 46 47 48 48 49 50 50 50 51 52 52 53 54 53 54 55 55 55 55 56 57 57 57 58 58 58 58 58 58 59 58 58 58 58 58 58 57 57
44 45 46 47 48 49 49 50 50 51 52 52 52 52 53 53 54 55 55 55 55 56 55 55 56 57 57 56 57 57 57 57 57 58 58 57 57 57 57 57 57 56 56
46 47 48 49 50 50 51 52 52 53 54 54 54 54 54 54 55 56 56 56 56 56 56 56 55 56 55 56 56 57 57 57 56 56 56 56 56 56 56 56 55 55 55
47 48 49 50 50 51 52 54 54 55 55 55 55 55 55 55 56 56 56 56 56 57 56 56 55 55 55 56 56 56 57 56 55 55 55 55 55 55 54 54 54 54 54
48 49 50 50 51 52 53 54 55 55 55 55 55 56 56 56 57 57 57 57 57 57 57 57 56 56 56 56 55 56 56 55 54 54 54 53 53 53 53 53 53 53 53
50 50 51 51 52 53 54 55 55 56 56 56 56 57 57 57 57 57 57 57 56 56 56 57 57 56 55 55 55 55 55 54 54 53 53 52 52 52 52 52 52 52 52
51 52 53 54 54 54 55 55 56 56 56 56 57 57 57 57 57 57 56 56 56 56 57 57 57 56 55 55 55 55 54 54 53 52 51 51 51 51 51 51 51 51 51
53 54 54 55 55 55 55 55 56 56 56 57 57 56 56 56 56 55 55 55 55 55 55 55 55 55 55 55 54 55 54 53 52 51 50 51 51 51 51 51 51 51 52
Wind_Direction
243 245 247 247 249 251 252 252 249 247 248 250 252 255 258 260 261 262 264 266 267 269 270 272 273 274 275 278 277 277 280 281 281 282 283 285 286 287 287 285 284 284 283
244 246 247 247 250 251 253 252 250 251 250 250 251 253 257 260 263 265 265 266 266 268 270 271 272 273 275 277 278 279 279 279 282 283 283 284 285 285 285 284 283 283 282
243 245 247 249 251 252 254 253 252 252 252 251 252 253 256 261 264 266 266 267 267 268 269 270 270 272 275 276 278 279 280 279 280 283 284 284 284 284 283 283 282 282 282
245 246 248 251 253 254 255 255 255 254 253 252 252 253 255 260 263 265 267 267 268 268 269 270 271 272 274 276 278 278 279 280 281 282 283 284 285 284 283 281 281 282 282
249 250 251 254 255 255 256 257 257 256 254 253 254 254 257 260 262 265 266 267 268 268 269 269 271 272 273 275 278 279 279 280 281 281 283 284 284 284 282 282 280 281 282
250 252 252 254 255 256 257 258 258 256 255 254 254 256 257 259 261 263 265 267 268 269 270 270 272 273 273 275 276 278 279 280 280 281 281 282 282 282 282 282 281 280 281
250 252 253 255 256 257 257 258 258 257 256 255 256 257 258 259 263 264 265 268 269 269 270 272 273 274 274 275 276 278 278 278 278 279 280 280 281 281 281 280 280 280 280
252 253 255 256 256 257 258 259 259 258 257 257 259 259 260 261 264 265 266 268 270 271 272 273 273 274 275 276 276 277 277 277 278 279 279 279 279 279 279 279 279 280 280
253 254 255 257 257 258 259 260 260 260 259 260 261 262 262 262 265 267 268 269 271 272 272 274 274 275 276 276 276 276 276 277 278 279 279 278 278 278 278 278 278 279 280
253 253 255 257 258 260 261 261 262 262 262 262 263 264 265 265 267 268 268 269 270 272 272 274 275 276 277 277 277 277 277 278 278 278 278 278 278 278 278 278 278 278 279
253 254 256 258 259 261 262 263 263 263 264 264 265 265 266 267 269 270 270 270 270 271 273 273 274 276 277 277 277 277 277 277 277 277 277 278 278 279 278 278 279 278 278
256 257 257 259 260 262 263 264 265 264 264 266 265 266 267 268 269 269 271 272 273 272 273 274 274 275 276 277 277 277 277 277 277 278 278 278 278 279 279 279 279 278 278
257 258 258 258 260 262 263 264 265 264 265 266 267 267 268 269 270 271 272 273 274 274 274 275 276 276 276 277 277 277 277 277 278 278 279 279 279 279 279 279 279 279 278
259 259 260 260 260 262 263 264 264 265 266 267 268 268 268 269 270 272 274 274 274 275 275 276 276 277 277 277 277 277 277 277 278 279 279 279 279 279 279 279 279 279 278
260 261 261 262 261 261 262 263 264 265 267 267 268 269 269 270 272 273 275 275 275 276 276 276 277 277 278 278 278 278 277 278 278 279 279 279 279 279 279 279 279 278 278
262 262 263 262 262 262 262 263 265 266 269 269 269 270 270 271 272 274 274 275 276 276 276 277 278 279 279 279 279 278 278 278 279 279 279 279 279 279 279 279 278 278 278
262 262 262 262 264 265 265 265 266 267 270 270 270 271 271 271 272 274 275 275 276 276 277 277 278 280 280 279 279 279 278 278 279 279 279 279 279 279 279 279 279 279 278
263 263 263 264 264 265 265 266 267 268 270 271 271 272 272 273 273 274 275 276 276 276 278 279 279 280 280 280 280 279 279 279 279 280 280 280 280 279 279 279 279 278 278
265 266 265 265 265 265 265 266 268 269 270 270 271 272 273 274 274 275 275 275 276 276 278 279 279 279 280 280 279 280 279 279 279 279 280 280 279 280 280 280 279 279 278
266 266 266 266 267 267 267 268 268 269 269 270 271 273 274 275 275 275 275 276 276 277 278 279 279 280 280 279 279 280 280 280 279 279 280 280 280 279 280 279 279 278 278
267 267 267 268 268 268 268 269 270 270 271 271 272 273 274 274 275 276 276 276 277 278 278 279 279 280 280 279 280 280 281 281 280 280 279 279 280 279 280 279 278 278 277
268 268 269 269 269 269 269 270 271 271 271 272 273 273 274 275 276 276 277 277 277 278 278 278 278 279 280 280 280 281 281 281 280 279 279 279 279 280 279 278 278 278 277
269 269 270 270 270 270 271 271 271 271 272 272 273 274 275 276 276 276 277 277 277 277 277 277 278 279 279 279 280 280 280 279 280 279 279 279 279 279 278 278 278 278 278
271 271 271 271 272 273 273 273 273 273 273 274 274 275 276 277 277 277 277 277 277 277 276 276 277 277 277 278 279 279 279 279 279 279 279 278 277 278 278 278 278 279 279
272 272 272 272 273 274 275 274 274 273 274 274 275 276 277 277 277 276 277 277 277 277 276 276 276 277 277 278 279 279 279 279 279 279 279 278 277 278 278 279 279 279 279
273 273 274 274 274 275 275 274 274 274 274 275 276 276 277 277 276 276 277 277 277 277 277 277 276 276 277 278 279 279 279 279 279 278 278 279 279 278 278 278 278 279 279
Height
5813 5814 5815 5816 5817 5818 5819 5820 5821 5822 5823 5824 5825 5826 5827 5828 5828 5829 5829 5829 5830 5830 5830 5830 5830 5829 5829 5828 5828 5828 5827 5826 5825 5825 5824 5823 5821 5820 5819 5818 5817 5816 5815
5807 5809 5810 5811 5812 5813 5814 5815 5815 5817 5818 5819 5820 5821 5822 5823 5823 5823 5824 5824 5824 5825 5825 5825 5824 5824 5824 5824 5823 5822 5822 5821 5820 5819 5818 5817 5816 5814 5813 5812 5811 5810 5809
5802 5803 5805 5806 5806 5807 5808 5809 5810 5811 5812 5813 5814 5815 5816 5817 5817 5818 5818 5819 5819 5819 5819 5819 5819 5819 5818 5818 5817 5817 5816 5815 5814 5813 5812 5811 5810 5808 5807 5806 5805 5804 5803
5796 5798 5799 5800 5801 5802 5802 5803 5804 5805 5806 5807 5808 5809 5810 5811 5811 5812 5812 5812 5813 5813 5813 5813 5813 5813 5812 5812 5811 5810 5810 5809 5808 5807 5806 5804 5803 5802 5801 5800 5799 5798 5797
5790 5792 5793 5794 5795 5796 5796 5797 5798 5799 5800 5801 5802 5803 5804 5805 5805 5805 5806 5806 5806 5806 5806 5807 5806 5806 5806 5806 5805 5804 5803 5802 5801 5800 5799 5798 5796 5795 5794 5793 5792 5791 5790
5784 5786 5787 5788 5789 5790 5791 5791 5792 5792 5793 5795 5795 5796 5797 5798 5798 5799 5799 5799 5799 5799 5800 5800 5800 5799 5799 5799 5798 5797 5796 5795 5794 5792 5791 5790 5789 5788 5787 5786 5785 5784 5783
5778 5779 5781 5782 5783 5784 5784 5785 5785 5786 5787 5788 5789 5789 5790 5790 5791 5791 5792 5792 5792 5792 5792 5792 5792 5792 5791 5791 5790 5789 5788 5787 5786 5785 5784 5782 5781 5780 5779 5778 5778 5776 5775
5771 5772 5774 5775 5776 5777 5777 5778 5778 5779 5780 5781 5782 5782 5783 5784 5784 5784 5784 5784 5784 5784 5784 5784 5784 5783 5783 5782 5782 5781 5780 5778 5777 5776 5775 5774 5773 5772 5771 5770 5769 5768 5766
5764 5766 5767 5768 5769 5769 5770 5771 5771 5772 5773 5773 5774 5775 5775 5776 5777 5777 5776 5776 5776 5776 5776 5776 5775 5775 5774 5773 5773 5772 5771 5770 5768 5767 5766 5765 5764 5763 5762 5761 5760 5758 5757
5756 5758 5759 5760 5761 5762 5762 5763 5763 5764 5764 5765 5766 5766 5767 5768 5768 5769 5769 5768 5768 5767 5767 5767 5766 5765 5765 5764 5763 5762 5761 5760 5759 5758 5756 5755 5754 5753 5752 5751 5750 5749 5747
5748 5750 5751 5752 5753 5754 5754 5755 5755 5756 5756 5756 5757 5758 5758 5758 5758 5759 5759 5760 5759 5758 5758 5757 5756 5755 5755 5754 5753 5752 5750 5749 5748 5747 5746 5745 5744 5742 5741 5740 5739 5738 5737
5740 5741 5743 5744 5744 5745 5746 5746 5747 5747 5748 5748 5748 5749 5749 5749 5749 5749 5749 5749 5749 5749 5748 5747 5746 5745 5744 5743 5742 5741 5740 5738 5737 5736 5734 5733 5732 5731 5730 5728 5727 5726 5725
5731 5732 5733 5734 5735 5736 5737 5737 5738 5738 5738 5739 5739 5739 5739 5739 5739 5739 5738 5738 5738 5738 5737 5736 5735 5734 5733 5732 5730 5729 5728 5727 5725 5724 5722 5721 5720 5719 5717 5716 5714 5713 5712
5722 5723 5723 5724 5725 5726 5727 5728 5728 5728 5728 5729 5729 5729 5729 5729 5728 5728 5727 5727 5727 5727 5726 5724 5723 5722 5721 5719 5718 5716 5715 5714 5712 5711 5709 5708 5706 5705 5704 5702 5701 5699 5698
5712 5713 5714 5714 5715 5716 5717 5718 5718 5718 5718 5718 5718 5718 5718 5717 5717 5716 5715 5715 5714 5714 5714 5712 5710 5709 5707 5706 5704 5703 5701 5700 5699 5697 5695 5694 5692 5690 5689 5687 5685 5684 5683
5703 5703 5703 5704 5705 5706 5706 5707 5707 5707 5708 5707 5707 5707 5706 5705 5705 5704 5703 5702 5701 5700 5700 5700 5697 5695 5693 5691 5689 5688 5686 5685 5683 5682 5680 5678 5676 5674 5673 5671 5669 5668 5666
5693 5693 5693 5694 5694 5695 5695 5696 5696 5696 5696 5696 5695 5694 5694 5692 5692 5691 5689 5688 5687 5685 5685 5685 5683 5680 5678 5676 5674 5672 5670 5669 5667 5665 5663 5661 5660 5658 5656 5654 5652 5651 5650
5682 5682 5682 5682 5683 5683 5683 5684 5684 5684 5683 5683 5683 5682 5680 5679 5678 5677 5675 5673 5672 5670 5669 5669 5668 5665 5663 5660 5658 5656 5654 5652 5650 5648 5645 5644 5642 5641 5639 5637 5635 5634 5633
5670 5670 5670 5671 5671 5671 5671 5671 5671 5671 5670 5670 5669 5668 5667 5665 5664 5662 5660 5658 5656 5654 5653 5651 5651 5649 5647 5644 5641 5639 5637 5635 5633 5630 5628 5626 5625 5623 5622 5620 5618 5617 5616
5658 5658 5658 5658 5658 5658 5657 5657 5657 5657 5656 5656 5655 5653 5652 5650 5648 5647 5645 5643 5641 5639 5637 5635 5634 5632 5630 5627 5624 5622 5621 5618 5616 5613 5611 5609 5608 5606 5605 5603 5602 5600 5599
5646 5645 5645 5645 5644 5644 5644 5643 5643 5642 5641 5641 5639 5638 5637 5635 5633 5631 5629 5628 5625 5623 5621 5619 5618 5616 5614 5611 5608 5606 5604 5602 5600 5597 5595 5594 5592 5590 5588 5586 5585 5583 5582
5633 5632 5631 5631 5630 5630 5629 5628 5627 5626 5625 5625 5624 5622 5621 5619 5617 5615 5614 5612 5610 5608 5605 5603 5602 5600 5598 5595 5593 5590 5588 5587 5586 5584 5580 5578 5576 5574 5572 5570 5569 5567 5566
5619 5618 5617 5616 5616 5615 5613 5612 5611 5610 5610 5609 5608 5606 5605 5604 5601 5599 5598 5596 5594 5591 5589 5587 5586 5584 5583 5580 5577 5576 5573 5571 5570 5568 5565 5564 5561 5559 5557 5555 5553 5552 5551
5606 5605 5603 5602 5601 5600 5598 5597 5595 5594 5594 5593 5592 5590 5589 5587 5585 5583 5581 5580 5578 5576 5574 5572 5570 5569 5567 5564 5561 5559 5557 5555 5554 5553 5549 5548 5547 5544 5542 5540 5539 5537 5535
5591 5590 5589 5587 5586 5585 5583 5581 5579 5578 5578 5577 5576 5574 5572 5570 5569 5566 5564 5563 5562 5561 5558 5556 5555 5553 5551 5549 5546 5544 5542 5540 5540 5538 5535 5533 5532 5530 5528 5526 5524 5522 5521
5577 5575 5574 5572 5570 5569 5567 5565 5563 5562 5562 5561 5560 5558 5556 5554 5552 5549 5548 5547 5546 5545 5543 5541 5540 5538 5536 5534 5531 5529 5527 5525 5524 5524 5522 5519 5517 5515 5515 5513 5511 5509 5507